Location: Krasnoyarskiy Pitomnik
(51.1333°N, 71.6167°E)
Time: 11:04:37
(UTC+00:00)

Envisat - Pass Details

Date: 06 March 2024
Orbit: 762 x 764 km, 98.3° (Epoch: 21 April)

Event Time Altitude Azimuth Distance (km) Brightness Sun altitude
Rises 23:52:05 0° 8° (N) 3,244 6.6 -18.4°
Reaches altitude 10° 23:54:35 10° 359° (N) 2,313 5.6 -18.0°
Maximum altitude 23:59:05 33° 297° (WNW) 1,278 3.8 -17.3°
Enters shadow 00:00:19 29° 270° (W) 1,382 3.8 -17.1°
